When you browse on this site, cookies collect data to enhance your experience and personalize the content and advertising you see.
Visit our Privacy Policy to learn more. By continuing to use the site, you agree to this use of cookies and data.
  • In Austria
  • List of Countries
  • For 7 days
  • Water Temperature
  • Satellite Maps
  • Weather Map
  • News
  • Weather Widgets
  • user-avatar
    Login

    Hourly Weather Zhejiang

    Today, 19 December, Wednesday

    Time Temperature Precipitation Wind Pressure Humidity
    00:00 +9°C° 0 mm 2 mps 765 mmHg 58%
    01:00 +9°C° 0 mm 2 mps 765 mmHg 57%
    02:00 +10°C° 0 mm 1 mps 764 mmHg 57%
    03:00 +10°C° 0 mm 1 mps 764 mmHg 56%
    04:00 +9°C° 0 mm 2 mps 764 mmHg 56%
    05:00 +9°C° 0 mm 2 mps 764 mmHg 55%
    06:00 +9°C° 0 mm 2 mps 764 mmHg 56%
    07:00 +10°C° 0 mm 2 mps 764 mmHg 56%
    08:00 +10°C° 0 mm 2 mps 764 mmHg 54%
    09:00 +13°C° 0 mm 2 mps 764 mmHg 50%
    10:00 +15°C° 0 mm 2 mps 764 mmHg 47%
    11:00 +16°C° 0 mm 1 mps 764 mmHg 43%
    12:00 +18°C° 0 mm 1 mps 763 mmHg 44%
    13:00 +18°C° 0 mm 1 mps 763 mmHg 46%
    14:00 +18°C° 0 mm 1 mps 762 mmHg 49%
    15:00 +16°C° 0 mm 1 mps 762 mmHg 51%
    16:00 +16°C° 0 mm 1 mps 762 mmHg 54%
    17:00 +14°C° 0 mm 0 mps 762 mmHg 56%
    18:00 +15°C° 0 mm 1 mps 762 mmHg 57%
    19:00 +14°C° 0 mm 1 mps 762 mmHg 58%
    20:00 +14°C° 0 mm 1 mps 762 mmHg 59%
    21:00 +14°C° 0 mm 1 mps 762 mmHg 60%
    22:00 +14°C° 0 mm 1 mps 763 mmHg 61%
    23:00 +13°C° 0 mm 1 mps 763 mmHg 63%

    Tomorrow, 20 December, Thursday

    Time Temperature Precipitation Wind Pressure Humidity
    00:00 +13°C° 0 mm 1 mps 763 mmHg 65%
    01:00 +13°C° 0 mm 1 mps 763 mmHg 67%
    02:00 +12°C° 0 mm 2 mps 763 mmHg 68%
    03:00 +12°C° 0.1 mm 1 mps 763 mmHg 71%
    04:00 +12°C° 0.1 mm 1 mps 763 mmHg 74%
    05:00 +11°C° 0.1 mm 1 mps 762 mmHg 77%
    06:00 +11°C° 0.1 mm 1 mps 763 mmHg 79%
    07:00 +11°C° 0.1 mm 1 mps 763 mmHg 80%
    08:00 +11°C° 0.1 mm 1 mps 763 mmHg 82%
    09:00 +12°C° 0 mm 1 mps 763 mmHg 79%
    10:00 +13°C° 0 mm 1 mps 763 mmHg 77%
    11:00 +14°C° 0 mm 1 mps 763 mmHg 74%
    12:00 +14°C° 0 mm 1 mps 763 mmHg 73%
    13:00 +15°C° 0 mm 2 mps 762 mmHg 72%
    14:00 +15°C° 0 mm 2 mps 762 mmHg 70%
    15:00 +15°C° 0 mm 2 mps 762 mmHg 73%
    16:00 +14°C° 0 mm 1 mps 762 mmHg 76%
    17:00 +14°C° 0 mm 1 mps 762 mmHg 79%
    18:00 +13°C° 0 mm 1 mps 762 mmHg 82%
    19:00 +12°C° 0 mm 1 mps 763 mmHg 85%
    20:00 +12°C° 0 mm 1 mps 763 mmHg 87%
    21:00 +12°C° 0 mm 1 mps 763 mmHg 88%
    22:00 +10°C° 0 mm 0 mps 763 mmHg 89%
    23:00 +10°C° 0 mm 0 mps 763 mmHg 90%

    Day after tomorrow, 21 December, Friday

    Time Temperature Precipitation Wind Pressure Humidity
    00:00 +10°C° 0 mm 0 mps 763 mmHg 90%
    01:00 +10°C° 0 mm 0 mps 763 mmHg 91%
    02:00 +10°C° 0 mm 0 mps 763 mmHg 91%
    03:00 +11°C° 0 mm 1 mps 763 mmHg 91%
    04:00 +10°C° 0 mm 1 mps 763 mmHg 91%
    05:00 +10°C° 0 mm 1 mps 763 mmHg 91%
    06:00 +11°C° 0 mm 1 mps 763 mmHg 90%
    07:00 +11°C° 0 mm 1 mps 764 mmHg 88%
    08:00 +11°C° 0 mm 1 mps 764 mmHg 87%
    09:00 +12°C° 0 mm 0 mps 764 mmHg 80%
    10:00 +14°C° 0 mm 0 mps 764 mmHg 73%
    11:00 +16°C° 0 mm 0 mps 764 mmHg 65%
    12:00 +19°C° 0 mm 1 mps 763 mmHg 63%
    13:00 +20°C° 0 mm 1 mps 763 mmHg 61%
    14:00 +20°C° 0 mm 1 mps 762 mmHg 59%
    15:00 +19°C° 0 mm 1 mps 763 mmHg 64%
    16:00 +18°C° 0 mm 1 mps 763 mmHg 68%
    17:00 +16°C° 0 mm 2 mps 763 mmHg 72%
    18:00 +16°C° 0 mm 1 mps 763 mmHg 76%
    19:00 +15°C° 0 mm 1 mps 764 mmHg 79%
    20:00 +15°C° 0 mm 1 mps 764 mmHg 83%
    21:00 +14°C° 0 mm 1 mps 764 mmHg 84%
    22:00 +13°C° 0 mm 0 mps 764 mmHg 86%
    23:00 +13°C° 0 mm 0 mps 764 mmHg 87%

    22 December, Saturday

    Time Temperature Precipitation Wind Pressure Humidity
    00:00 +14°C° 0.4 mm 1 mps 764 mmHg 88%
    01:00 +14°C° 0.4 mm 1 mps 764 mmHg 89%
    02:00 +14°C° 0.4 mm 1 mps 763 mmHg 90%
    03:00 +14°C° 0 mm 1 mps 763 mmHg 91%
    04:00 +14°C° 0 mm 1 mps 763 mmHg 92%
    05:00 +14°C° 0 mm 1 mps 763 mmHg 93%
    06:00 +14°C° 0.2 mm 1 mps 763 mmHg 92%
    07:00 +14°C° 0.2 mm 1 mps 763 mmHg 92%
    08:00 +14°C° 0.2 mm 0 mps 764 mmHg 91%
    09:00 +14°C° 0.1 mm 0 mps 764 mmHg 89%
    10:00 +16°C° 0.1 mm 1 mps 764 mmHg 88%
    11:00 +16°C° 0.1 mm 1 mps 764 mmHg 86%
    12:00 +16°C° 0 mm 1 mps 763 mmHg 86%
    13:00 +18°C° 0 mm 1 mps 763 mmHg 85%
    14:00 +18°C° 0 mm 1 mps 762 mmHg 85%
    15:00 +18°C° 0 mm 1 mps 762 mmHg 86%
    16:00 +16°C° 0 mm 1 mps 763 mmHg 88%
    17:00 +16°C° 0 mm 1 mps 763 mmHg 89%
    18:00 +16°C° 0.2 mm 1 mps 763 mmHg 90%
    19:00 +16°C° 0.2 mm 1 mps 764 mmHg 91%
    20:00 +16°C° 0.2 mm 1 mps 765 mmHg 92%
    21:00 +15°C° 0.1 mm 1 mps 765 mmHg 93%
    22:00 +15°C° 0.1 mm 2 mps 765 mmHg 93%
    23:00 +15°C° 0.1 mm 2 mps 765 mmHg 94%

    23 December, Sunday

    Time Temperature Precipitation Wind Pressure Humidity
    00:00 +15°C° 0.6 mm 2 mps 765 mmHg 94%
    01:00 +15°C° 0.6 mm 2 mps 765 mmHg 93%
    02:00 +15°C° 0.6 mm 2 mps 765 mmHg 93%
    03:00 +13°C° 0.4 mm 3 mps 766 mmHg 93%
    04:00 +13°C° 0.4 mm 3 mps 766 mmHg 92%
    05:00 +13°C° 0.4 mm 3 mps 766 mmHg 91%
    06:00 +12°C° 0.7 mm 3 mps 767 mmHg 91%
    07:00 +12°C° 0.7 mm 4 mps 768 mmHg 90%
    08:00 +11°C° 0.7 mm 4 mps 768 mmHg 89%
    09:00 +11°C° 0.7 mm 4 mps 769 mmHg 88%
    10:00 +11°C° 0.7 mm 4 mps 769 mmHg 87%
    11:00 +11°C° 0.7 mm 3 mps 769 mmHg 87%
    12:00 +11°C° 0.1 mm 3 mps 769 mmHg 85%
    13:00 +11°C° 0.1 mm 3 mps 769 mmHg 83%
    14:00 +11°C° 0.1 mm 3 mps 768 mmHg 82%
    15:00 +11°C° 0 mm 3 mps 768 mmHg 82%
    16:00 +11°C° 0 mm 3 mps 769 mmHg 81%
    17:00 +11°C° 0 mm 3 mps 769 mmHg 81%
    18:00 +10°C° 0 mm 2 mps 769 mmHg 81%
    19:00 +10°C° 0 mm 2 mps 770 mmHg 80%
    20:00 +10°C° 0 mm 2 mps 770 mmHg 80%
    21:00 +10°C° 0 mm 2 mps 770 mmHg 80%
    22:00 +10°C° 0 mm 2 mps 770 mmHg 79%
    23:00 +10°C° 0 mm 2 mps 770 mmHg 79%

    24 December, Monday

    Time Temperature Precipitation Wind Pressure Humidity
    00:00 +9°C° 0 mm 2 mps 770 mmHg 80%
    01:00 +9°C° 0 mm 2 mps 769 mmHg 81%
    02:00 +9°C° 0 mm 2 mps 769 mmHg 82%
    03:00 +9°C° 0 mm 2 mps 769 mmHg 81%
    04:00 +9°C° 0 mm 2 mps 768 mmHg 81%
    05:00 +9°C° 0 mm 2 mps 768 mmHg 81%
    06:00 +9°C° 0 mm 2 mps 768 mmHg 81%
    07:00 +9°C° 0 mm 2 mps 769 mmHg 81%
    08:00 +9°C° 0 mm 2 mps 769 mmHg 80%
    09:00 +10°C° 0 mm 3 mps 768 mmHg 78%
    10:00 +11°C° 0 mm 3 mps 768 mmHg 76%
    11:00 +11°C° 0 mm 3 mps 768 mmHg 74%
    12:00 +11°C° 0 mm 3 mps 767 mmHg 74%
    13:00 +11°C° 0 mm 3 mps 766 mmHg 74%
    14:00 +12°C° 0 mm 3 mps 765 mmHg 74%
    15:00 +11°C° 0 mm 3 mps 765 mmHg 76%
    16:00 +11°C° 0 mm 3 mps 765 mmHg 78%
    17:00 +11°C° 0 mm 3 mps 765 mmHg 79%
    18:00 +11°C° 0 mm 3 mps 765 mmHg 80%
    19:00 +11°C° 0 mm 3 mps 765 mmHg 81%
    20:00 +11°C° 0 mm 3 mps 765 mmHg 82%
    21:00 +10°C° 0 mm 3 mps 765 mmHg 83%
    22:00 +10°C° 0 mm 2 mps 765 mmHg 85%
    23:00 +10°C° 0 mm 2 mps 764 mmHg 86%
    Show more